Theta_e
302 301 301 300 299 299 300 300 299 301 302 299 298 296 296 299 296 295 297 301 304 306 308 312 312 314 318 321 323 325 327 329 330 330 332 332 331 332 333 333 334 336 335 338 338 339 340 341 341 342 341 341 341 341 341 342 344 342 344 346 347 348 348 348 348 349 349 349 348 349 352 349 350 349 347 346 345 344 344 343 342 341 340 338 336 335 334
300 300 300 300 299 302 303 304 303 303 301 297 297 297 299 300 301 301 302 304 308 309 310 312 315 322 324 328 327 327 328 329 329 330 330 332 331 331 332 333 334 336 337 339 339 339 339 340 341 340 342 344 341 341 341 342 343 344 344 345 347 348 348 348 349 350 349 350 347 349 350 349 349 348 346 344 343 343 342 341 341 340 339 337 336 334 333
300 300 302 301 301 303 303 305 306 306 304 303 304 303 308 309 305 306 306 306 307 311 313 315 324 328 329 327 326 326 325 327 329 329 330 331 332 332 333 334 335 335 336 338 339 339 339 340 341 340 340 342 342 344 344 343 344 345 345 344 346 347 347 349 349 349 349 348 347 349 349 349 348 346 344 344 342 341 340 339 338 339 337 336 335 334 333
294 298 299 299 299 301 303 304 306 305 304 302 305 306 309 304 305 306 306 305 306 311 313 324 323 325 326 326 326 326 326 329 329 329 330 331 332 332 333 335 337 337 335 336 338 339 341 341 343 343 341 342 343 342 343 345 347 347 345 345 345 346 348 349 349 349 349 349 348 349 349 348 347 345 344 343 341 339 338 337 337 338 335 335 334 334 334
292 296 299 299 298 299 298 301 304 305 307 309 308 312 313 312 310 305 303 306 308 310 315 321 320 322 323 324 327 327 326 326 329 329 330 331 332 333 333 335 337 338 338 338 339 341 342 343 343 343 343 343 344 343 343 344 348 347 346 345 345 345 347 348 349 350 351 350 349 349 349 347 346 344 343 341 340 338 336 337 337 335 335 333 333 334 334
293 297 299 300 297 293 294 303 308 310 309 309 308 308 309 312 312 309 308 311 313 316 317 316 317 322 322 325 326 330 329 328 328 330 330 331 333 333 335 336 337 339 340 341 341 342 343 344 345 346 347 346 347 349 348 347 346 346 346 346 345 346 346 347 349 351 352 351 349 349 348 346 344 343 342 340 339 338 337 336 334 334 333 333 333 333 333
293 295 296 295 289 292 303 305 308 311 310 311 310 310 311 312 314 315 316 316 317 318 319 319 317 324 328 332 333 334 332 331 330 330 331 331 333 333 334 336 337 338 340 341 341 342 343 344 345 343 343 347 348 348 347 345 347 346 347 346 346 346 345 347 350 352 352 351 349 349 347 345 343 342 341 340 338 337 335 334 332 332 331 331 332 333 333
294 291 290 287 292 301 304 306 310 315 311 312 311 310 313 312 313 315 314 316 318 321 321 322 323 329 332 332 334 335 337 335 332 331 331 332 333 333 335 336 337 338 339 340 340 340 344 344 344 345 346 349 347 345 343 342 345 347 346 345 346 346 346 348 351 353 352 351 350 348 346 344 343 341 341 339 337 337 336 333 332 332 331 332 332 332 332
294 292 291 292 297 301 303 305 309 310 308 309 307 304 309 313 313 316 317 319 321 322 322 322 323 323 325 322 325 334 337 339 338 333 334 334 334 336 336 338 338 339 341 342 342 342 342 342 342 343 344 347 346 344 341 343 346 343 345 346 346 346 347 348 352 354 353 351 349 347 345 343 342 341 340 339 338 338 334 332 330 329 329 331 332 331 330
292 290 290 291 293 292 296 302 308 314 314 314 311 307 306 312 315 317 321 319 321 322 322 322 322 321 318 317 322 330 336 338 340 342 334 334 336 336 337 338 339 339 340 343 345 343 342 342 342 342 342 343 343 341 341 342 342 341 342 344 346 347 347 348 352 355 354 352 350 348 345 344 343 342 341 340 338 338 334 330 329 329 329 330 330 331 330
294 291 288 287 289 292 299 305 310 312 314 314 311 305 301 310 313 318 322 322 322 322 322 323 320 318 314 315 320 329 335 337 340 342 345 347 340 337 338 338 338 338 339 343 344 345 343 343 344 343 343 342 343 342 343 344 345 345 345 345 346 346 347 349 352 356 355 353 351 348 345 344 344 343 341 340 339 338 334 332 330 329 330 329 328 329 330
295 290 289 290 293 300 309 309 311 314 314 312 306 297 297 307 313 320 324 324 324 323 323 324 320 317 314 314 322 332 335 337 340 342 344 347 349 343 338 339 340 340 342 343 344 343 342 342 344 344 344 343 342 340 341 341 342 343 343 345 346 348 348 350 352 356 356 354 351 349 347 346 345 344 343 341 338 335 332 331 329 329 330 328 327 327 329
299 297 291 294 300 307 311 312 314 315 314 307 297 292 301 311 320 325 325 325 325 324 325 321 322 323 322 323 329 334 337 339 340 343 345 347 349 347 339 339 346 341 341 342 342 343 342 343 343 343 343 341 340 341 341 340 340 343 346 347 347 347 348 350 352 355 357 355 352 351 349 347 346 344 342 340 337 333 330 329 329 328 328 327 327 326 327
294 292 292 294 297 304 310 314 315 315 310 300 295 303 310 315 324 325 326 326 325 327 326 324 323 326 330 333 333 333 336 337 339 341 342 345 348 350 351 345 346 338 339 340 340 341 342 342 342 342 341 339 339 339 340 339 340 342 346 348 349 348 349 350 351 354 357 356 355 352 350 348 345 343 341 339 336 332 330 328 328 327 327 328 326 325 326
297 293 293 294 292 306 312 314 312 315 306 303 306 315 320 323 325 326 326 326 326 326 327 327 327 328 329 329 331 332 334 337 337 339 340 342 344 346 347 348 351 342 337 337 338 339 340 340 340 340 340 339 339 340 338 340 342 344 347 349 350 350 351 351 352 353 356 356 355 353 350 348 345 342 340 337 334 332 329 328 327 326 326 325 324 324 325
295 291 292 293 300 306 313 313 308 313 315 317 316 319 319 323 324 326 325 326 326 326 327 326 327 327 329 329 331 334 335 335 337 338 339 341 343 345 343 343 346 348 340 338 336 335 335 340 341 340 339 339 340 341 341 344 345 349 351 352 353 352 352 352 353 353 355 356 356 354 351 348 345 341 339 337 334 331 329 328 326 325 324 324 324 323 323
299 299 299 305 308 310 314 319 319 321 324 323 321 323 323 324 325 326 327 327 328 328 328 328 327 328 330 330 332 333 333 334 335 336 337 339 339 342 342 340 344 343 340 338 342 342 340 342 342 340 339 338 340 340 342 345 347 349 352 353 353 353 353 353 353 354 355 356 356 354 351 347 343 340 338 336 332 331 329 328 326 325 324 325 323 323 324
309 311 311 313 310 310 315 323 324 325 327 329 329 328 327 327 328 329 328 329 330 329 328 329 328 329 328 329 331 332 334 334 336 336 337 338 339 340 342 344 343 341 339 339 338 340 342 342 338 341 343 340 338 340 343 346 349 352 353 353 353 353 354 354 354 355 355 356 355 353 349 347 345 342 339 336 333 330 329 328 327 325 324 324 324 324 323
303 299 309 309 309 310 312 318 324 324 325 326 329 329 328 329 330 331 331 331 331 331 330 330 329 330 330 330 330 331 332 333 333 334 334 335 336 338 338 340 347 342 338 335 334 336 336 337 337 338 338 340 342 343 344 348 351 353 355 354 354 354 354 354 355 356 356 355 354 351 348 346 344 342 340 337 334 331 330 327 326 326 325 325 324 324 323
302 304 309 313 314 314 314 313 317 319 321 321 323 326 329 330 332 333 333 334 333 333 333 332 331 331 331 331 331 332 332 332 333 333 334 333 335 338 339 340 345 342 342 342 340 339 336 336 338 339 338 338 340 344 348 353 353 352 351 352 352 353 354 354 355 356 356 354 350 348 346 345 343 341 339 338 335 332 330 328 327 326 325 325 324 324 323
307 309 309 310 313 313 313 313 313 315 319 320 319 321 323 327 330 331 332 335 335 334 334 333 334 334 332 331 331 333 333 335 335 335 335 335 335 336 338 339 343 341 342 342 341 341 342 342 340 339 339 341 344 343 345 347 350 349 349 350 350 351 352 354 354 355 356 354 350 349 346 345 343 340 339 338 336 335 334 333 331 328 326 325 326 326 325
303 304 307 311 306 306 310 311 312 315 319 320 318 318 318 318 320 326 328 329 331 332 334 335 335 334 334 334 333 336 336 336 335 336 337 337 338 339 340 340 340 341 343 341 341 341 342 341 342 341 340 340 341 343 343 342 343 344 347 346 346 345 345 348 348 348 348 347 341 340 339 337 331 329 324 325 331 335 333 333 328 323 321 328 328 327 325
302 307 311 313 313 311 313 314 312 312 314 315 316 316 317 318 320 325 327 326 324 324 326 330 332 332 334 335 335 334 335 336 336 336 337 337 338 339 341 340 340 340 341 342 342 342 341 341 341 341 343 342 340 341 341 341 341 341 345 344 343 343 342 341 341 340 338 338 338 337 339 336 332 332 330 323 311 321 325 329 320 313 311 316 318 323 326
306 308 310 313 312 310 310 312 313 313 314 316 318 318 317 318 320 322 323 322 321 321 322 324 328 329 330 333 333 331 332 334 335 335 335 337 338 340 341 339 337 336 338 340 341 341 339 340 341 340 340 342 342 341 339 340 342 343 343 344 342 343 343 342 341 339 338 337 338 339 337 336 334 334 332 327 324 310 311 317 315 310 307 307 311 313 316
307 308 309 309 309 310 313 315 316 316 318 318 317 319 323 320 319 320 319 320 320 321 320 321 323 326 326 328 329 328 329 330 335 335 335 338 337 338 338 338 336 335 335 336 339 339 339 339 340 341 339 341 342 342 340 341 342 343 343 343 343 344 345 344 343 340 337 336 337 338 336 334 334 333 331 329 326 324 318 308 308 305 305 307 308 309 309
312 312 313 313 313 313 314 313 315 316 316 316 316 318 322 329 326 321 319 320 320 321 321 321 322 323 325 325 326 326 326 329 332 333 329 330 332 333 334 336 337 336 335 334 335 335 336 338 340 340 340 342 343 342 340 340 340 341 341 342 342 343 344 342 339 338 337 337 337 336 336 335 333 333 332 331 328 326 323 321 321 312 306 306 307 307 307
314 313 311 311 310 311 313 310 311 316 317 318 317 318 319 319 325 322 321 321 321 322 322 322 323 323 324 325 328 329 327 329 329 327 327 329 330 331 333 335 338 338 335 333 333 334 337 339 339 339 340 342 343 343 341 340 338 338 339 340 342 344 343 341 340 339 339 338 337 336 335 335 335 334 332 331 329 327 326 325 323 322 319 317 310 306 314
312 312 311 306 306 309 313 316 316 316 317 318 317 318 318 319 319 319 319 319 320 320 321 322 323 323 322 323 324 323 324 324 324 325 327 327 329 331 332 334 336 338 337 335 334 334 334 334 334 336 339 342 343 343 343 339 336 336 336 338 339 340 341 340 339 338 338 337 337 336 335 335 335 335 333 330 328 328 327 328 326 324 323 322 320 314 311
313 313 313 311 311 313 314 315 316 316 316 318 320 318 318 316 316 316 317 317 318 319 320 320 322 323 322 323 323 323 323 323 324 324 325 327 330 329 331 333 335 337 338 338 337 336 334 333 332 332 336 341 342 342 342 341 338 336 336 336 336 337 337 337 337 336 335 334 334 334 335 334 333 332 330 329 328 328 328 328 326 325 324 322 321 320 319
313 314 314 314 315 315 314 314 314 315 316 316 317 317 317 316 315 314 315 316 317 318 319 319 320 321 323 323 323 322 323 322 323 324 326 327 328 329 330 331 334 335 335 335 335 335 334 335 337 337 339 341 342 342 342 341 340 339 338 338 338 338 337 337 336 335 334 333 333 334 333 333 332 330 329 328 328 328 327 327 327 325 324 322 324 322 321
312 314 314 315 315 314 314 312 312 314 314 314 314 315 315 315 314 314 315 316 317 318 319 319 320 321 322 322 322 322 323 323 324 324 325 326 327 328 329 330 331 332 333 333 334 335 335 335 336 338 339 339 341 342 341 340 340 339 339 338 338 335 334 333 334 335 335 334 333 332 331 331 330 330 330 329 328 328 328 328 327 325 324 323 324 323 324
311 311 312 311 311 312 312 311 311 313 313 315 315 314 314 314 314 314 315 316 316 318 318 319 320 320 321 322 323 322 321 322 323 324 324 325 325 327 328 329 330 333 332 332 333 334 334 334 335 337 339 339 340 341 340 339 338 338 338 339 337 336 334 333 335 334 335 334 333 332 331 330 329 329 329 328 328 328 328 328 327 325 324 323 324 324 323
307 306 307 309 310 309 310 310 311 312 313 314 313 313 314 315 315 316 316 317 318 319 318 319 319 320 321 322 320 320 320 321 322 322 322 323 324 325 327 329 329 329 329 331 332 333 333 333 334 336 337 339 339 341 340 338 338 338 338 338 336 335 335 334 334 334 334 333 332 332 332 331 330 329 329 329 329 329 328 328 328 325 324 323 324 324 322
308 308 309 311 311 310 310 311 311 311 313 313 313 314 315 316 316 315 317 321 318 318 318 319 319 320 320 320 319 319 320 320 320 320 321 321 322 324 325 327 327 328 328 329 331 332 332 333 333 334 336 338 339 340 341 340 337 337 337 337 335 334 334 333 333 333 333 332 332 333 332 331 330 329 329 328 329 329 328 328 327 326 324 323 324 323 317
312 312 312 314 312 312 313 313 313 313 314 312 313 314 315 315 315 316 322 319 316 317 318 319 319 319 319 318 318 318 319 318 319 320 320 321 322 323 324 325 326 326 325 326 328 330 331 332 333 334 336 337 338 339 341 340 338 337 336 337 335 334 334 333 333 333 332 332 332 332 330 330 329 329 329 328 328 328 328 328 328 327 325 322 321 321 317
313 313 313 313 313 316 315 314 314 315 315 313 313 314 315 316 317 315 315 316 317 317 317 317 318 318 317 317 317 317 318 319 319 319 320 320 321 323 323 324 324 323 323 323 325 329 330 331 337 338 338 337 338 339 340 340 339 338 336 336 335 334 333 333 333 333 333 332 331 331 330 330 330 329 329 328 328 328 327 327 327 326 324 322 321 320 318
313 312 312 312 311 312 312 313 314 314 314 313 314 315 316 315 315 315 318 317 317 317 317 317 317 316 316 317 317 318 318 318 319 318 319 320 321 321 322 322 323 322 322 320 322 327 329 330 335 337 338 336 337 338 340 343 340 338 337 337 335 334 333 332 332 332 332 332 332 331 331 331 329 328 329 328 327 327 327 327 326 325 323 322 320 319 317
312 313 311 311 312 312 312 313 316 316 315 314 314 316 317 316 315 315 315 315 317 316 317 317 317 316 317 318 317 316 315 316 316 317 317 318 320 320 321 321 321 322 320 320 323 326 328 332 336 336 335 335 336 337 338 342 344 340 337 337 335 334 333 332 331 331 331 331 331 331 331 330 328 327 327 327 326 326 326 326 325 324 322 321 320 320 318
311 311 311 312 313 312 313 313 313 313 315 314 313 313 315 318 317 316 315 315 316 317 317 316 316 315 315 314 314 314 315 315 316 317 317 318 320 320 320 321 322 322 323 325 326 328 331 333 334 335 334 334 335 336 337 340 343 342 338 337 336 335 334 333 332 331 331 331 331 330 330 329 329 327 327 326 326 326 325 324 323 323 322 320 319 319 319
309 309 310 312 311 311 312 311 311 312 312 313 313 312 314 315 313 313 314 314 315 318 316 315 314 314 314 314 314 314 315 316 317 317 318 319 320 319 319 320 321 322 324 329 328 327 330 334 334 333 333 333 334 335 337 338 340 340 339 337 336 335 334 333 333 331 331 331 330 331 329 329 328 328 327 326 326 325 325 325 325 323 321 320 320 320 319
309 309 309 310 310 311 311 310 310 311 311 312 312 312 313 313 313 313 314 314 315 315 314 314 314 314 314 314 314 315 317 319 319 319 319 318 317 317 316 316 320 321 322 323 326 329 332 332 331 331 331 333 334 336 338 339 339 339 339 338 337 336 334 333 332 332 331 331 330 330 330 329 328 328 327 326 326 325 325 324 324 323 322 321 320 320 320
308 308 310 310 310 309 311 310 311 311 311 311 313 315 314 314 314 313 314 315 315 314 313 314 317 317 317 318 318 318 316 316 316 317 317 317 317 316 315 316 320 321 326 327 328 328 328 328 329 332 331 332 334 336 338 340 338 337 338 338 337 336 335 334 332 332 332 331 331 331 330 329 328 327 326 326 326 325 325 324 324 323 322 322 321 320 320
308 308 309 309 309 310 310 311 311 311 312 312 313 313 313 313 313 314 314 314 314 313 313 313 315 317 317 314 314 313 314 315 315 316 316 317 319 319 318 318 320 321 326 327 328 327 328 328 328 329 332 334 335 336 338 339 338 337 337 337 337 336 334 334 334 333 331 331 330 330 330 329 329 328 326 325 325 325 325 324 324 324 323 323 322 321 321
310 311 310 310 310 311 311 310 311 311 311 311 312 312 311 311 312 313 313 313 314 315 314 313 313 313 314 314 314 314 314 315 315 315 314 315 316 318 320 319 320 323 327 327 327 327 327 328 328 330 333 334 335 336 336 337 338 338 337 337 336 336 335 334 333 333 332 331 330 330 330 329 329 328 327 326 326 325 325 324 325 324 324 324 323 323 322
309 309 310 309 310 310 309 309 309 310 311 312 311 311 311 312 312 313 313 313 313 314 316 315 314 314 314 314 314 314 314 315 315 315 313 313 314 315 319 324 323 324 325 327 326 327 327 327 329 333 333 331 330 334 334 334 335 336 337 337 337 337 336 335 333 333 332 331 331 331 330 330 330 329 329 328 327 326 325 325 324 325 324 323 323 323 323
310 310 310 315 312 310 311 310 311 312 311 310 310 311 313 313 312 313 314 313 313 313 313 313 313 313 313 313 314 314 315 315 316 317 317 316 315 316 320 323 323 326 327 329 328 328 328 331 331 330 329 328 330 331 332 333 334 335 336 336 337 336 336 336 335 334 333 332 332 331 331 331 331 330 330 329 328 327 327 325 325 325 325 324 324 324 323
310 310 309 309 309 310 310 311 311 312 311 310 309 309 312 313 313 313 313 313 313 312 313 313 313 313 314 314 313 313 313 313 315 317 318 319 321 322 324 326 327 328 327 324 324 324 325 327 328 328 327 328 331 331 332 333 333 334 335 335 336 336 336 336 336 335 334 333 332 331 332 331 331 331 329 330 329 328 327 326 325 325 325 324 324 324 323
309 309 309 309 309 310 310 309 309 307 307 308 309 310 311 312 312 312 312 312 312 312 313 313 313 314 314 314 315 315 315 314 313 315 318 319 319 320 321 320 321 325 326 327 326 328 330 328 327 326 326 327 329 330 330 331 332 333 334 335 336 336 336 336 336 336 335 334 333 333 331 331 331 330 330 329 329 329 329 327 326 325 325 325 324 324 324
309 309 310 311 310 309 308 308 309 311 309 310 311 311 312 312 312 311 311 312 311 312 312 312 312 313 314 317 317 317 319 320 317 315 318 320 320 319 320 323 325 325 324 322 322 322 325 325 325 324 325 328 327 328 329 330 332 333 334 335 335 336 336 336 336 336 335 334 333 333 333 333 332 331 330 329 329 329 329 328 328 326 325 324 324 324 324
309 308 308 307 307 307 307 306 307 307 308 310 309 310 310 310 309 309 311 311 311 314 313 313 313 314 315 315 316 317 318 319 320 320 320 320 320 320 321 321 322 324 325 322 323 323 326 326 327 328 329 329 329 329 330 330 332 333 334 335 335 336 336 334 331 331 333 334 334 332 332 332 333 331 330 329 328 329 328 328 329 327 325 324 324 324 324
307 308 308 310 310 310 309 308 308 309 309 309 309 310 312 311 310 313 312 313 313 313 313 313 314 315 315 316 317 317 318 318 320 323 321 321 321 323 324 323 323 324 323 323 323 323 323 324 324 326 327 328 328 330 331 332 332 333 334 334 335 335 335 333 333 334 334 334 334 333 332 332 332 331 331 329 328 328 327 327 327 327 327 326 325 324 324
309 308 308 308 308 308 308 308 309 309 309 310 310 310 311 311 311 311 311 317 314 313 313 312 312 314 315 316 317 317 318 318 319 319 321 321 321 320 322 324 322 322 321 321 321 322 323 324 326 328 329 329 329 329 331 332 332 333 334 334 336 336 335 336 335 334 334 334 333 332 332 332 332 331 330 330 329 328 327 327 327 327 326 326 326 324 324
Wind_Speed
4 3 2 2 2 3 1 2 4 7 5 1 7 6 4 7 4 9 4 5 3 1 1 1 3 3 2 3 3 2 2 1 1 3 4 5 6 6 7 7 8 10 11 7 8 6 5 5 6 5 6 5 4 4 4 5 4 6 7 8 8 8 8 9 10 8 7 6 6 5 5 6 6 6 7 7 7 7 7 7 5 7 6 7 8 7 6
4 1 1 2 4 1 2 5 5 4 3 4 6 3 2 8 2 2 3 5 1 1 2 3 4 3 2 0 1 2 2 2 2 3 4 5 6 7 8 8 8 8 11 9 8 9 7 7 5 5 3 1 5 5 6 6 7 5 5 7 8 8 9 10 8 7 7 6 6 5 6 6 7 7 7 7 8 8 7 7 7 6 7 6 7 8 8
2 4 3 1 2 3 5 6 10 12 9 3 2 0 0 4 4 3 5 4 4 3 2 3 2 2 0 3 7 4 2 1 2 3 4 5 5 5 6 7 9 9 10 9 8 8 10 9 6 10 8 2 2 1 2 5 6 6 6 7 7 9 10 8 7 7 7 6 6 7 7 6 6 7 8 7 8 8 8 8 8 7 7 8 7 6 7
3 2 7 7 2 2 6 10 12 13 10 6 5 2 3 3 5 3 4 6 3 3 5 2 2 3 6 4 2 2 2 1 1 3 5 5 4 4 6 7 9 11 12 12 11 10 9 10 9 8 7 2 2 4 5 3 1 4 5 5 7 8 7 6 7 8 7 7 7 6 6 7 7 7 7 8 8 8 8 9 7 6 7 7 7 6 6
1 4 1 5 2 2 4 8 7 5 3 2 2 1 6 4 1 4 6 1 2 4 4 2 3 5 5 7 5 2 2 1 2 4 5 4 3 3 6 7 8 10 12 13 13 10 8 7 7 7 6 2 3 3 2 2 2 3 3 5 5 5 4 6 7 7 7 8 7 7 7 7 7 7 8 8 8 9 9 7 7 8 8 7 7 7 6
3 6 8 2 5 4 1 4 0 1 2 3 3 4 4 7 6 1 2 1 3 4 6 5 5 5 3 2 3 1 3 4 3 4 5 4 2 3 5 6 7 8 8 9 11 11 10 7 6 7 6 5 3 2 4 3 4 4 4 4 4 4 4 6 7 7 7 8 8 8 7 7 7 8 8 9 8 7 7 7 8 7 7 7 7 7 7
2 6 5 6 3 3 4 5 3 3 3 4 3 4 8 8 7 4 5 6 7 5 3 2 2 3 1 1 4 6 5 1 2 4 5 4 4 6 7 7 7 7 7 7 8 9 10 10 7 6 5 3 3 4 3 4 3 3 4 5 4 3 4 5 5 7 7 8 8 8 8 8 8 9 9 7 8 8 9 10 11 10 10 8 7 7 6
1 2 3 3 2 2 5 6 5 2 2 0 2 9 10 9 6 2 3 4 5 6 6 6 1 2 1 0 4 6 6 4 2 3 5 5 5 7 8 9 8 9 10 11 11 10 8 10 8 5 5 4 2 3 6 8 6 1 3 4 5 5 6 6 7 7 8 8 7 8 8 8 9 9 8 9 10 8 7 6 5 5 5 5 7 7 7
1 1 0 1 3 3 3 3 3 3 2 3 2 4 4 4 4 4 4 8 8 7 4 3 2 5 3 4 6 6 8 9 6 4 7 5 7 7 7 8 10 9 8 9 10 10 9 11 9 6 4 2 1 3 8 2 1 3 3 4 5 6 7 8 8 8 9 9 8 9 9 10 10 10 10 8 7 7 8 8 8 7 7 6 6 7 7
3 3 2 2 1 1 4 5 4 1 1 2 3 3 3 5 7 4 4 4 6 5 5 5 7 5 3 6 5 7 10 9 9 7 5 5 5 6 7 4 4 6 5 5 6 9 11 8 6 4 4 2 2 2 2 3 3 6 4 5 5 5 7 8 9 9 9 10 10 10 10 11 12 11 9 7 9 8 10 10 9 7 6 6 6 6 7
2 2 2 2 3 4 4 5 6 5 1 2 4 4 2 3 3 5 3 5 4 4 4 6 5 5 4 2 5 6 8 8 7 9 9 8 6 7 8 9 8 9 9 9 8 7 8 10 8 6 5 4 2 3 3 2 3 6 5 6 7 8 9 8 8 8 8 8 9 10 11 11 11 11 11 11 8 7 6 6 6 6 6 6 6 5 5
2 6 1 1 3 0 1 2 4 5 2 2 3 1 1 2 4 4 4 6 6 5 4 1 7 5 2 3 5 7 7 6 4 7 9 10 10 6 5 6 6 6 7 8 8 9 11 11 10 7 7 7 7 5 4 3 6 7 9 11 8 8 8 7 8 8 9 10 10 11 12 11 10 10 7 7 9 8 7 6 6 6 6 5 7 6 6
1 5 0 1 2 3 3 4 7 7 1 2 4 3 3 1 1 3 4 5 4 3 7 6 6 0 1 4 7 9 8 8 7 8 9 10 9 9 3 4 3 5 6 8 9 9 8 7 10 13 12 9 10 10 9 9 13 13 12 10 10 10 6 7 8 9 9 10 12 11 11 11 9 7 7 8 8 8 8 7 7 6 7 6 6 6 6
1 2 5 2 4 4 2 8 7 4 1 1 3 2 1 2 3 3 6 6 6 5 5 3 1 3 4 5 5 7 9 8 7 8 10 10 11 12 8 2 2 5 4 3 3 7 8 9 8 9 11 14 16 14 13 14 17 14 10 11 11 11 9 8 9 10 10 10 11 10 8 7 9 8 7 7 7 9 8 9 8 7 7 6 6 6 6
1 3 4 1 2 1 4 11 4 3 1 2 2 2 2 0 4 7 6 6 5 4 5 4 4 6 7 7 7 7 7 9 10 10 10 10 10 10 13 13 11 2 3 4 4 4 5 7 9 9 10 12 12 10 12 17 16 11 10 11 12 12 10 9 10 11 11 12 11 8 9 10 10 9 7 8 8 9 9 9 8 8 7 7 7 7 6
1 1 1 2 1 5 6 2 1 1 0 2 1 2 3 3 3 6 5 5 3 4 4 4 5 4 7 7 9 7 7 8 8 9 8 7 8 8 10 10 10 10 7 5 4 3 2 0 2 5 8 11 10 10 15 17 10 8 9 9 10 10 10 10 10 10 11 12 11 9 9 8 8 8 8 8 8 9 9 10 9 9 8 8 7 8 9
1 1 2 3 3 4 4 0 1 0 2 3 1 4 4 5 4 1 4 4 4 4 3 4 4 5 5 4 5 5 6 6 6 8 8 8 8 7 8 8 8 8 9 9 7 2 3 3 2 3 6 10 12 15 17 10 7 8 8 8 8 9 9 9 10 10 9 9 9 9 8 10 10 8 8 9 8 7 9 9 9 9 8 7 9 8 8
1 1 1 2 3 4 6 4 4 5 6 4 4 6 8 4 3 3 6 4 7 6 2 4 4 4 4 5 7 7 7 7 7 6 7 8 9 7 5 6 5 9 9 9 10 11 8 9 10 11 10 7 11 15 10 5 6 7 8 8 9 10 9 8 9 8 8 8 9 9 10 10 11 10 10 9 9 9 9 9 9 9 8 7 7 8 8
2 1 6 5 3 4 6 5 5 6 5 5 4 6 5 3 3 5 4 5 4 3 3 5 4 5 4 6 5 6 7 9 9 8 9 8 8 8 9 5 2 7 11 8 2 6 11 9 5 2 4 6 9 9 9 5 4 1 0 2 4 5 7 7 6 7 9 9 8 7 8 9 8 9 9 10 9 9 10 10 10 9 8 9 8 8 8
4 2 2 1 2 2 2 4 7 7 8 7 6 4 3 3 3 4 4 4 4 2 4 3 6 5 4 6 6 6 7 7 7 8 8 9 9 9 7 6 6 5 5 4 7 10 9 3 4 2 2 1 2 3 5 6 7 8 9 9 9 9 9 7 6 7 8 9 10 8 9 9 10 10 9 10 11 12 13 13 12 10 9 10 10 11 11
0 1 3 5 2 5 7 6 5 4 4 4 6 7 7 6 6 5 6 7 5 6 5 3 5 7 7 5 4 6 6 8 9 9 9 8 8 8 10 9 7 7 6 7 7 7 5 1 1 1 2 1 1 2 2 3 4 9 10 12 11 8 5 6 8 7 6 6 8 7 6 6 3 3 3 7 7 6 5 9 12 14 12 11 12 11 10
2 5 5 2 2 1 2 5 5 5 5 3 6 6 8 8 7 6 7 7 6 7 6 6 7 8 6 6 5 7 6 6 7 8 10 10 10 11 9 8 9 10 9 8 8 8 6 6 6 5 4 3 3 3 3 2 9 9 9 6 3 3 4 6 6 5 2 3 8 8 6 6 7 7 8 1 7 9 9 11 12 11 14 14 14 12 11
4 6 5 3 5 4 1 3 4 4 6 5 8 7 5 5 4 3 6 7 8 8 7 5 7 7 7 6 5 7 7 7 5 6 7 9 10 11 11 11 12 12 10 10 8 7 7 7 8 8 7 4 1 2 3 5 7 10 7 1 3 2 2 4 6 9 10 8 7 7 9 10 9 10 8 3 9 1 8 10 12 14 12 8 12 12 14
3 3 2 5 2 3 2 1 4 5 4 3 7 5 5 5 5 5 8 6 6 4 5 7 6 5 5 4 6 6 6 7 7 8 7 7 7 7 8 9 10 12 12 12 11 9 6 6 7 7 7 8 7 2 5 8 7 3 4 4 4 2 3 4 5 6 4 6 9 7 2 4 7 6 6 6 4 11 8 7 12 11 12 15 17 15 10
0 1 2 3 6 6 3 4 4 4 4 4 6 5 4 5 5 4 8 6 5 6 6 7 7 6 5 5 5 5 4 4 5 6 5 6 8 8 7 8 9 9 8 9 9 7 7 7 6 6 6 7 6 7 5 4 4 3 2 5 6 5 5 5 6 7 8 8 6 6 7 8 2 2 6 7 7 5 4 10 6 7 13 15 15 13 12
4 5 5 4 4 2 0 2 8 7 7 4 3 3 4 5 4 6 7 5 6 5 6 6 7 7 6 6 6 4 4 5 5 5 6 7 8 8 10 9 7 4 6 5 6 7 7 8 8 7 7 7 8 7 6 3 2 3 2 1 6 6 6 8 7 6 6 4 5 5 6 7 7 6 7 8 9 9 8 5 7 10 8 10 16 18 18
1 1 4 8 6 5 5 6 2 2 4 4 4 4 4 4 6 5 4 5 5 5 5 5 4 4 5 6 5 5 6 5 5 7 6 6 7 6 6 6 7 5 2 4 5 5 7 6 6 7 7 8 8 8 5 4 1 1 1 2 4 6 10 8 7 7 7 7 8 8 8 8 9 10 8 6 7 7 8 10 9 9 9 8 12 12 10
3 3 1 3 2 2 1 1 1 2 2 5 4 4 3 3 6 8 9 8 8 6 6 6 7 8 8 8 8 9 9 9 8 6 6 7 7 6 6 7 6 6 4 3 5 4 4 4 4 7 9 8 7 8 6 3 3 2 2 2 4 5 5 7 6 6 7 7 8 8 8 9 9 8 7 8 8 7 6 6 7 9 7 7 5 7 13
4 5 4 4 4 3 3 3 4 5 5 4 4 4 5 8 7 7 7 6 4 4 6 7 5 4 5 6 6 7 7 8 9 9 7 6 6 7 7 7 7 4 3 4 5 6 6 8 7 6 9 9 7 6 6 3 4 4 4 4 5 5 6 6 7 6 6 7 7 7 8 10 10 9 8 8 7 7 7 7 8 6 7 7 6 5 3
2 3 4 4 3 4 4 4 2 2 3 3 4 5 5 6 7 7 5 5 5 6 5 4 4 5 4 5 5 5 6 7 7 6 6 5 5 5 6 7 7 4 2 2 3 3 2 3 5 7 8 7 7 6 5 5 4 4 5 3 4 5 5 6 6 6 7 6 7 9 8 7 7 7 8 7 7 7 7 7 7 8 9 9 9 10 10
3 4 5 4 5 4 5 2 2 3 3 4 3 5 6 4 4 5 6 6 5 5 5 5 5 4 5 5 5 4 4 5 6 6 6 5 5 5 6 6 7 7 7 7 7 5 4 4 5 6 7 6 7 7 6 5 4 3 2 3 3 6 8 7 4 4 4 6 6 6 6 5 5 5 6 6 6 6 7 7 8 8 7 8 8 9 8
6 6 6 6 4 4 4 4 4 4 4 3 6 7 5 4 4 4 4 5 4 4 4 6 6 7 6 5 5 5 5 5 6 6 7 7 7 6 5 6 6 7 7 8 7 5 5 5 6 7 6 6 7 7 6 5 3 2 2 1 1 1 3 6 3 3 3 4 6 6 5 4 4 4 5 5 6 7 7 8 8 9 9 9 8 7 7
3 3 4 5 5 6 5 4 5 5 5 5 4 3 3 2 3 3 3 2 3 3 4 5 5 5 6 5 5 5 5 5 5 4 6 8 9 8 7 6 6 7 8 7 6 4 4 5 6 7 7 7 7 8 7 5 3 2 1 1 1 2 2 1 2 2 2 2 2 4 4 4 4 4 5 5 6 6 7 8 8 8 8 8 8 7 8
4 3 1 0 1 1 1 3 3 3 4 3 3 4 4 4 3 3 3 3 3 4 5 5 5 5 6 6 6 6 6 6 8 8 8 8 8 9 9 8 7 7 8 7 5 4 4 4 5 6 7 7 8 8 7 4 2 1 1 1 1 1 2 2 2 1 1 1 1 1 3 4 4 5 5 6 7 7 8 8 7 7 7 5 4 5 8
4 2 2 1 0 0 1 1 1 1 2 3 5 4 3 3 3 4 4 4 4 4 4 4 5 5 5 6 6 6 6 6 6 7 8 8 8 8 9 10 10 9 8 8 4 4 4 4 5 6 7 7 7 7 7 5 2 2 2 3 2 1 1 1 3 4 3 3 2 3 3 4 5 5 6 7 7 7 7 7 8 8 7 6 5 5 7
3 3 2 1 1 1 1 1 2 2 2 2 3 3 4 4 5 5 6 6 5 4 4 4 5 5 5 5 6 7 8 7 6 6 7 7 8 7 8 9 10 11 10 11 5 2 4 6 8 11 8 7 7 6 4 4 4 4 4 4 3 2 2 2 2 2 2 3 4 4 4 5 4 5 5 6 6 7 7 7 7 6 6 5 6 6 6
1 3 2 0 0 0 0 0 1 1 2 3 3 3 4 5 5 5 5 6 5 5 5 5 5 6 6 6 6 6 7 7 6 6 7 7 7 7 8 8 9 9 9 11 7 5 8 8 11 15 10 7 7 6 3 5 5 4 4 4 4 4 4 3 3 3 3 4 4 5 5 4 4 5 5 6 6 6 5 4 5 5 4 5 5 6 6
1 2 3 2 2 2 1 1 1 2 2 3 3 3 4 4 5 5 6 6 6 6 5 5 6 6 6 6 6 7 7 7 7 7 7 7 7 7 8 7 8 8 9 10 9 8 7 9 13 10 8 8 7 6 4 6 7 5 4 4 4 5 5 5 5 4 4 4 4 5 6 6 5 5 5 5 5 5 5 5 4 5 5 5 6 6 6
2 2 2 2 2 3 2 3 2 2 3 3 4 4 4 5 5 4 5 6 6 5 5 6 6 6 7 7 7 6 6 6 7 7 7 8 6 6 8 9 9 9 9 10 11 9 8 8 8 8 8 9 9 6 6 6 8 5 5 5 5 5 5 6 6 5 5 4 4 5 5 5 5 5 5 5 5 5 6 6 6 5 5 5 5 6 6
2 1 2 1 2 2 3 3 3 4 4 4 4 5 5 4 5 5 5 6 6 4 5 5 6 6 7 8 8 8 7 7 6 7 8 8 7 8 8 9 9 8 7 11 9 9 10 14 10 7 9 9 8 6 5 6 6 5 5 6 6 6 5 5 5 5 5 5 6 7 6 6 6 5 5 5 5 5 5 5 5 5 4 4 5 5 6
2 2 2 2 3 3 3 4 5 5 5 5 5 6 5 5 5 5 7 7 7 5 5 5 6 7 7 8 8 9 9 8 7 7 7 6 7 8 8 10 9 8 7 7 8 10 12 11 9 8 8 9 7 6 6 7 5 5 5 6 7 7 7 7 6 6 6 6 7 6 7 7 6 6 5 5 5 5 5 6 5 6 5 6 6 6 5
4 2 3 3 4 4 5 5 5 5 6 6 6 5 7 6 5 7 8 7 7 7 7 7 8 8 8 8 7 8 9 9 8 8 6 7 8 8 8 10 9 7 11 13 13 12 10 9 8 7 8 8 8 8 9 7 5 5 5 6 7 7 7 8 8 7 7 6 5 6 6 5 6 6 6 6 5 5 5 6 6 6 5 6 7 7 7
5 4 4 5 5 5 5 5 5 6 7 7 6 6 7 7 6 6 7 7 8 8 8 8 8 9 8 7 7 8 9 9 9 9 8 7 8 8 9 11 11 9 14 11 11 9 9 8 9 8 10 10 9 12 13 7 5 5 6 6 6 7 7 8 8 9 7 7 8 6 8 6 5 6 6 6 6 5 6 6 6 7 7 7 7 7 7
4 4 5 5 6 6 5 5 6 5 6 9 8 6 6 6 7 7 8 8 9 9 9 9 9 9 9 8 7 7 8 7 8 8 9 10 9 7 9 9 9 11 15 10 8 8 9 9 9 13 17 18 18 16 9 6 6 6 6 6 6 6 7 7 8 8 9 8 7 7 9 8 8 7 7 7 6 6 6 6 6 6 8 8 8 8 7
5 5 6 7 6 5 6 6 7 8 9 7 7 7 7 8 9 8 8 8 9 9 8 9 9 9 9 9 8 9 8 8 7 7 8 10 11 11 5 7 8 7 10 14 10 9 8 9 12 20 19 18 14 14 9 7 7 6 7 7 7 6 7 7 8 8 8 9 8 8 9 10 9 8 7 8 8 7 8 8 8 7 7 7 8 9 10
7 7 6 6 7 7 8 7 8 6 6 7 8 9 9 9 9 9 8 8 9 9 9 9 9 10 10 10 10 10 9 9 8 8 8 9 10 11 10 11 9 9 15 17 10 9 8 14 18 18 18 18 17 11 7 8 7 7 7 7 7 7 7 7 7 8 8 8 9 8 9 8 7 8 8 7 8 8 8 9 8 7 7 7 8 8 8
7 7 7 7 8 8 8 7 6 6 7 7 8 10 10 9 9 8 8 9 9 9 9 9 10 11 11 10 10 9 10 10 9 7 8 8 9 11 11 16 17 19 16 10 8 9 9 11 13 15 17 18 17 10 7 7 7 7 8 8 7 7 7 8 8 8 8 8 9 10 11 10 8 8 8 7 8 8 7 9 8 7 7 7 7 8 8
7 8 8 8 8 8 7 6 6 8 8 10 10 9 9 9 9 9 9 8 9 9 9 9 9 10 11 11 10 10 9 9 11 11 8 9 8 8 8 7 9 14 18 16 18 17 22 22 19 18 18 18 13 9 8 8 8 8 8 8 8 8 8 7 8 8 8 9 9 9 9 10 9 9 8 8 7 7 7 7 7 6 6 7 8 8 9
8 8 8 7 6 6 7 7 7 8 9 9 8 9 9 9 9 9 9 10 9 9 9 9 10 10 10 10 11 10 9 8 10 12 10 9 10 8 9 10 16 18 14 11 11 10 15 19 18 17 18 17 12 9 8 8 8 8 9 9 9 8 8 9 9 9 9 9 10 10 10 9 10 11 9 7 7 7 7 8 7 7 7 7 7 7 8
7 6 6 7 7 7 8 7 8 9 9 8 8 9 9 7 8 9 9 9 9 9 8 8 9 9 9 9 9 9 9 10 10 11 11 11 12 11 10 9 9 15 17 12 12 12 13 19 19 19 14 10 9 8 8 9 9 9 9 9 9 8 9 10 10 11 10 9 9 9 10 11 10 10 9 7 7 7 7 7 7 11 15 10 7 7 7
6 7 8 8 8 8 8 8 9 9 8 9 9 9 8 8 9 9 9 10 9 9 9 10 9 9 9 9 9 9 10 9 10 11 11 11 10 12 14 12 12 11 12 12 10 10 11 10 9 10 11 11 10 9 9 9 9 10 10 10 10 9 9 10 8 8 8 8 8 9 10 10 9 9 9 7 7 8 8 8 8 7 7 7 7 7 8
8 7 8 8 8 8 8 8 8 8 9 9 9 9 9 9 9 9 9 12 10 9 10 9 11 10 9 9 10 10 8 9 9 9 10 10 10 9 10 15 12 12 13 11 11 11 11 11 12 15 15 11 10 10 12 15 12 11 10 10 10 10 9 9 9 8 9 10 9 8 9 10 9 10 8 7 8 8 8 8 8 7 8 8 8 8 7
Wind_Direction
242 216 225 245 219 203 227 313 309 324 298 184 183 225 195 138 166 205 259 157 137 248 239 283 267 250 251 295 302 252 219 159 128 142 156 167 172 175 171 164 149 146 162 158 164 186 220 195 149 118 132 137 134 155 162 167 175 190 181 175 181 184 185 192 200 197 192 191 185 175 164 160 159 161 161 155 152 150 149 142 136 141 139 139 137 132 132
312 356 246 247 143 88 56 7 350 342 349 236 229 264 211 192 192 211 141 152 187 236 302 312 294 303 274 186 49 56 102 185 192 187 194 186 183 182 180 170 167 165 166 166 169 172 193 230 181 115 356 89 146 160 175 174 179 180 170 188 183 185 192 201 195 184 183 183 176 167 160 163 164 162 160 158 154 150 147 142 139 140 141 139 142 145 144
312 308 308 89 10 59 42 354 8 3 351 4 47 351 342 78 47 103 141 98 59 350 326 296 309 356 68 55 32 9 338 339 202 216 222 213 195 183 173 172 175 172 180 184 162 189 187 187 183 170 175 317 352 98 166 169 171 167 174 191 195 191 202 197 181 174 176 182 169 175 171 161 163 161 161 158 152 145 142 145 148 149 144 145 147 150 156
313 318 350 332 31 82 57 18 3 357 355 16 0 10 281 141 156 165 84 67 35 317 328 308 352 9 45 23 3 5 335 332 291 249 245 232 212 174 173 175 173 175 188 195 174 194 185 166 163 169 152 109 1 13 17 19 66 146 172 194 206 211 205 176 176 179 182 172 174 175 164 168 165 167 161 157 155 151 148 148 152 143 150 152 149 153 153
264 264 7 318 20 45 10 353 327 328 327 346 286 282 29 39 182 77 97 188 225 254 276 314 352 18 17 15 11 358 328 279 222 247 256 252 233 173 175 176 175 180 187 187 186 181 175 152 135 114 101 81 22 80 96 135 151 162 193 209 210 212 190 182 184 183 176 175 176 171 174 166 164 164 167 162 157 156 162 158 145 158 157 150 156 157 157
254 299 336 1 54 53 260 233 184 182 63 19 26 18 350 2 57 139 177 242 283 331 359 15 359 34 16 343 329 260 267 297 267 252 250 243 207 165 182 184 174 178 186 182 181 171 160 154 138 118 121 128 145 155 164 171 157 168 183 213 213 204 191 196 189 184 179 177 178 176 166 161 163 169 173 177 164 155 147 150 161 155 152 157 156 160 161
294 324 7 42 46 232 240 286 261 229 213 131 135 88 47 20 30 52 34 360 357 327 287 279 219 128 136 106 55 29 14 248 223 239 251 239 188 181 177 178 175 167 166 152 140 151 156 149 140 119 112 133 140 128 83 63 83 140 184 190 189 175 193 206 198 187 182 181 178 170 165 163 168 177 181 165 159 162 165 169 171 172 167 160 160 159 159
39 42 42 92 211 242 290 291 290 259 153 235 77 23 13 21 9 352 27 319 335 3 16 25 81 166 178 222 59 39 27 25 233 235 252 231 193 193 193 182 175 166 166 160 158 156 146 132 119 119 121 126 113 63 54 12 5 52 237 213 177 162 180 195 206 201 188 182 173 166 165 168 174 181 181 177 171 166 160 159 139 122 137 149 159 156 150
196 173 116 224 293 341 357 1 7 41 348 352 49 89 349 344 340 2 10 358 2 354 5 335 342 318 335 27 357 14 19 16 3 254 255 237 217 215 209 188 185 181 166 157 156 147 153 148 142 156 145 106 64 85 84 100 287 295 236 229 225 191 185 192 204 205 195 183 175 172 171 172 182 185 183 178 169 162 161 167 161 164 164 162 153 154 154
118 131 51 10 21 186 275 240 263 330 231 204 169 102 340 331 0 356 14 16 342 358 338 347 334 333 53 2 318 357 1 7 5 358 328 273 239 218 222 186 160 165 154 144 163 161 160 156 142 146 135 97 55 13 78 113 246 258 268 253 221 216 211 200 204 202 199 186 179 176 178 187 189 190 186 176 174 171 171 167 170 165 150 146 153 159 159
80 52 127 200 156 244 214 276 298 312 322 167 132 70 11 282 342 332 21 25 13 12 360 337 355 44 31 266 269 332 349 350 7 2 351 339 296 227 209 197 181 173 174 168 173 185 160 147 152 154 174 165 181 187 194 158 243 282 278 265 248 223 216 208 203 201 200 196 183 180 189 196 190 184 185 183 169 162 160 151 148 137 146 143 147 152 153
166 135 97 207 208 193 354 255 299 312 9 147 68 55 276 270 331 327 20 27 16 357 6 24 54 67 354 272 293 328 328 324 349 7 1 353 345 303 214 224 189 176 166 156 165 179 186 166 142 151 178 179 193 207 207 224 247 245 249 251 239 228 226 206 201 200 195 195 193 190 196 196 193 191 166 148 158 157 146 140 139 147 142 147 151 154 150
150 103 183 328 304 271 273 307 321 316 201 101 88 189 232 246 341 2 30 33 27 16 34 33 54 357 205 246 290 312 325 354 18 12 12 7 6 348 252 191 147 143 175 180 175 180 193 178 170 177 184 185 207 208 204 198 225 228 229 238 256 252 212 199 202 204 200 198 198 202 198 193 183 165 161 159 144 149 145 141 140 140 146 145 144 144 153
153 181 118 196 243 243 295 322 309 279 119 142 204 235 200 113 65 55 52 32 11 29 55 39 38 310 326 308 323 343 352 350 353 14 11 11 16 20 20 25 127 125 146 174 179 181 172 163 174 201 192 194 206 202 202 214 225 226 223 232 237 244 236 214 207 204 205 206 204 200 190 168 170 168 150 142 145 149 147 150 148 144 146 150 148 145 150
60 41 83 40 151 243 34 327 340 17 81 231 217 142 21 141 100 78 51 49 7 23 30 28 14 351 342 353 345 337 345 3 358 358 9 15 16 25 27 22 6 13 157 168 178 172 173 181 184 197 212 220 218 206 211 223 224 219 221 226 234 238 236 219 210 208 206 203 200 193 188 185 172 158 148 144 146 148 148 148 147 147 153 153 151 148 153
150 83 113 186 213 263 321 19 127 306 236 285 193 116 72 7 55 69 74 45 44 38 66 26 6 7 356 346 352 345 357 357 353 357 4 12 21 28 43 33 14 13 23 25 24 346 358 136 185 212 213 225 229 223 227 229 219 209 212 216 223 229 231 224 214 213 210 204 197 188 184 167 157 148 154 151 149 156 154 153 155 156 162 160 157 159 163
118 196 211 258 266 266 291 94 317 297 359 42 145 99 89 78 32 255 92 68 61 74 63 50 44 20 12 338 330 347 331 343 356 357 348 353 3 26 39 28 23 28 28 11 351 279 252 310 323 260 239 234 233 232 236 231 221 216 210 212 214 224 228 226 221 218 212 203 191 183 170 161 159 159 153 155 151 159 157 160 163 163 165 165 166 165 165
336 76 165 295 340 345 344 21 30 33 34 18 43 80 87 56 65 49 83 67 58 44 18 60 34 41 329 355 354 353 351 354 353 349 353 356 355 7 63 90 39 40 13 7 3 356 23 33 11 6 353 304 264 251 260 246 225 213 202 201 210 220 224 222 223 214 205 201 193 183 168 172 174 173 165 163 162 162 164 166 165 165 165 164 163 163 171
64 328 326 13 345 337 2 5 23 44 42 32 27 59 62 84 74 73 59 89 96 100 73 77 75 42 22 36 15 1 357 1 354 354 349 348 348 351 354 356 87 150 154 142 83 347 360 357 14 19 306 2 350 323 305 274 257 287 189 237 250 245 236 231 216 203 200 197 191 180 169 169 168 169 168 167 161 164 169 165 167 170 164 163 160 162 171
104 190 262 285 318 313 344 35 33 15 360 9 23 37 54 72 80 86 105 117 87 124 63 60 72 56 34 45 27 18 10 356 352 351 350 343 344 343 337 333 354 5 22 66 129 148 151 206 277 300 333 267 192 255 232 187 172 165 172 181 194 198 199 194 195 195 204 197 179 185 188 179 172 175 176 174 172 175 175 172 169 171 164 167 169 174 179
302 320 289 289 311 34 18 16 37 26 10 2 20 23 27 25 51 53 45 46 57 55 48 35 58 54 29 28 22 35 17 12 3 353 346 344 336 333 344 340 346 351 356 5 15 39 65 127 181 203 118 296 320 35 348 300 228 198 211 210 201 203 176 166 174 174 186 197 190 197 186 183 66 42 156 182 183 175 185 178 175 168 172 175 180 181 168
168 171 213 147 126 36 343 13 9 7 353 25 63 40 39 20 19 14 58 47 41 51 39 37 51 57 40 24 27 40 35 22 5 359 357 354 354 350 347 341 347 349 354 359 4 9 20 6 353 354 335 344 3 18 42 315 295 274 235 216 206 165 112 85 62 52 23 84 58 64 62 56 51 40 22 88 189 178 178 185 184 181 167 174 181 172 176
216 242 240 132 132 154 223 275 327 14 10 25 52 40 39 31 35 43 72 65 44 39 30 30 56 61 55 39 44 47 30 14 7 5 4 2 360 357 353 357 358 354 347 348 353 4 8 355 352 344 331 335 52 84 35 298 268 270 286 358 49 42 115 117 111 108 109 108 117 152 179 160 151 169 177 33 17 174 181 172 178 175 190 162 141 157 175
254 264 215 152 132 137 129 33 38 28 6 59 76 61 47 42 31 48 66 58 70 45 42 36 35 49 60 44 54 49 26 14 14 10 0 4 359 355 358 4 359 358 352 351 353 347 350 353 340 344 333 326 322 307 230 233 234 201 129 106 95 98 148 155 115 100 91 153 163 170 124 117 172 164 136 120 70 14 9 184 175 166 147 137 151 175 176
225 272 142 143 115 120 129 96 61 47 24 47 75 55 49 61 45 54 67 55 36 44 39 26 14 19 31 34 47 52 45 15 14 19 7 12 10 9 357 355 4 351 348 348 342 353 348 330 330 333 329 312 298 283 263 278 300 284 198 131 125 145 160 137 115 138 163 192 178 133 125 133 140 144 147 159 148 174 62 44 56 124 137 138 153 169 175
133 123 116 110 106 62 297 41 40 24 11 24 73 59 36 62 83 67 60 60 49 37 44 27 17 4 16 16 16 12 26 23 17 21 25 20 8 8 1 347 333 328 343 348 341 350 343 328 318 319 320 312 309 296 290 302 343 331 316 171 146 145 145 143 146 161 171 165 127 125 133 142 157 180 195 176 181 173 137 121 77 50 50 144 175 185 184
127 52 75 68 47 28 32 91 128 339 344 359 62 62 49 37 65 86 78 61 57 47 45 27 21 358 15 23 15 20 22 7 13 16 11 13 13 350 329 322 324 313 280 311 325 333 320 315 318 315 309 307 308 306 294 295 19 333 220 165 133 120 126 142 170 170 161 157 161 160 163 164 171 189 187 184 178 161 158 153 149 156 156 209 218 187 167
342 330 114 138 181 168 165 30 27 343 1 23 23 30 8 36 50 43 37 29 22 16 22 22 19 20 21 6 10 4 7 13 11 1 2 359 336 328 328 328 326 318 311 287 288 292 285 288 335 329 306 296 306 307 310 276 296 261 255 179 140 138 133 128 132 140 147 153 158 154 154 164 180 181 177 176 173 166 142 127 145 156 161 193 186 225 186
6 10 35 83 121 131 96 56 38 32 23 11 30 32 34 48 38 43 29 19 358 3 18 3 4 19 21 0 11 8 360 357 357 357 346 331 334 330 329 326 323 314 295 298 304 314 329 333 326 309 287 289 295 295 303 276 217 227 217 186 152 147 145 149 151 153 157 160 166 168 167 166 169 174 169 165 164 148 146 158 152 145 159 155 147 160 180
18 20 48 43 47 57 63 54 48 19 22 5 38 26 24 46 41 17 13 7 11 14 348 342 1 4 1 5 5 360 352 342 330 326 329 330 330 335 338 333 319 315 336 331 309 291 289 256 251 254 262 270 263 265 264 273 259 218 209 197 166 158 166 165 165 162 164 157 156 148 153 162 164 166 163 158 152 145 144 151 153 156 168 182 182 173 176
51 57 69 73 71 67 76 43 17 38 32 17 37 46 20 40 56 24 357 347 0 5 347 353 351 347 357 355 332 325 321 324 330 330 330 329 332 341 347 352 354 338 325 315 310 318 312 302 287 282 280 270 258 247 243 232 240 256 243 186 155 136 145 170 173 164 143 140 139 136 141 145 158 155 139 138 136 136 147 153 164 170 180 185 189 185 178
67 44 46 41 46 52 37 25 29 21 7 3 28 22 7 24 23 4 348 353 336 327 336 353 355 345 332 328 334 336 336 332 327 327 330 336 340 345 346 341 331 322 307 303 307 330 326 315 310 301 291 263 247 250 240 235 225 229 253 316 12 2 117 128 138 134 126 129 137 142 143 137 126 107 113 134 148 156 159 167 176 181 183 187 193 184 163
57 28 10 359 5 19 17 2 24 360 2 8 358 336 349 16 16 7 345 331 336 347 351 342 330 327 324 326 335 335 332 321 314 323 340 340 335 334 333 330 324 313 308 302 308 318 301 304 299 296 293 284 270 256 245 240 236 248 303 10 29 68 71 98 117 91 90 98 124 141 148 148 130 140 156 159 165 167 175 184 187 188 191 196 189 171 169
116 132 156 198 126 42 21 342 339 346 338 339 333 345 354 356 352 340 334 339 346 341 344 329 319 318 326 332 331 331 335 342 345 340 331 327 324 323 324 323 314 307 298 297 310 306 282 273 278 286 282 284 281 279 275 268 273 326 351 13 26 65 115 94 81 72 130 190 113 120 118 144 155 173 178 182 182 184 185 184 187 185 192 201 179 160 160
104 104 107 76 148 233 204 219 269 289 317 339 336 335 324 318 337 329 325 342 335 308 304 310 316 322 325 328 327 326 329 324 313 310 311 311 311 314 319 318 318 317 316 314 331 312 283 284 281 282 283 278 275 277 287 293 260 185 205 189 184 197 213 121 172 187 196 203 151 142 154 173 180 176 176 175 188 192 193 190 185 180 181 171 162 147 156
86 76 43 27 355 340 318 255 246 249 256 268 277 282 302 315 323 330 328 314 304 307 309 311 312 317 318 318 319 315 311 306 301 299 298 300 302 307 311 313 315 316 316 310 313 290 308 315 312 310 304 292 287 283 275 263 229 213 194 189 172 151 156 205 211 205 169 163 187 189 197 200 187 183 176 178 183 182 187 187 187 184 179 163 158 157 145
138 143 167 199 252 230 229 253 239 249 259 264 277 293 295 303 295 291 296 302 305 308 310 311 315 313 301 292 284 287 284 286 287 289 288 290 296 301 301 303 306 308 313 306 307 341 327 315 310 313 312 297 297 304 299 248 225 229 196 184 159 160 164 170 202 203 198 189 179 187 187 169 172 181 183 184 189 198 193 181 177 171 165 159 160 158 150
230 179 183 187 198 198 215 231 239 231 235 266 264 254 258 267 275 276 279 284 287 287 293 293 287 284 287 286 284 281 285 288 290 288 285 287 291 295 293 294 297 304 301 291 304 316 310 304 306 309 308 302 300 298 282 268 245 227 202 197 176 169 173 175 181 196 206 197 194 187 185 183 177 175 175 177 179 180 182 186 175 168 166 160 165 167 166
186 222 233 223 222 215 239 264 244 223 216 237 260 264 258 254 263 266 268 266 267 273 280 283 289 296 294 297 294 287 278 278 282 287 288 286 282 279 282 282 276 272 274 288 299 297 302 304 304 305 303 303 301 297 289 279 262 234 215 210 200 185 185 175 180 184 198 193 189 196 193 188 188 187 178 183 183 180 184 183 173 167 167 162 165 173 172
234 254 247 265 270 261 261 265 272 269 259 234 237 266 274 284 284 281 275 276 272 262 269 280 288 288 291 294 295 293 289 280 272 274 282 288 291 286 282 277 271 271 274 287 293 295 293 297 304 300 298 295 298 298 292 282 264 250 224 217 213 205 191 182 175 175 180 189 201 204 203 198 199 196 193 190 186 187 180 177 173 161 163 160 176 175 176
233 250 271 242 259 283 271 274 278 273 277 283 268 263 268 269 280 287 283 281 285 280 267 261 270 276 276 277 280 284 287 285 279 274 275 284 288 286 288 287 286 288 285 283 281 291 298 301 296 294 287 293 293 300 293 285 269 246 243 229 221 212 205 198 184 184 182 191 200 200 203 204 197 198 194 194 195 193 190 186 177 176 168 172 178 182 185
252 250 270 275 269 266 268 262 268 285 280 263 266 273 278 276 270 271 277 283 287 289 290 282 267 267 268 270 275 285 290 288 287 278 263 258 267 280 284 282 283 282 290 295 297 293 289 288 285 282 282 287 288 291 298 291 257 242 237 234 224 212 208 203 200 201 191 183 182 197 201 189 196 198 199 198 199 196 191 189 187 179 172 177 181 186 188
253 252 252 256 260 264 263 268 268 267 276 280 272 272 276 282 279 276 277 281 283 288 288 285 285 287 283 279 277 279 280 285 288 289 283 258 243 240 253 269 285 286 287 286 283 285 284 286 284 278 280 282 284 291 297 291 253 240 232 231 221 217 209 207 203 200 189 181 192 194 201 194 192 187 191 196 199 192 190 189 190 185 182 183 185 185 191
245 240 243 251 264 265 267 271 276 278 280 281 276 270 272 274 270 271 273 276 279 278 277 282 283 281 280 277 275 273 273 276 283 287 293 295 284 250 232 251 259 273 279 276 271 276 281 283 283 282 285 288 290 295 296 282 270 253 237 228 226 222 215 210 201 198 196 193 184 190 200 198 202 199 190 192 193 192 192 198 197 194 191 188 185 186 194
250 246 248 249 256 271 275 268 265 266 266 273 288 290 281 275 274 267 262 265 267 269 270 268 269 271 274 273 268 266 264 262 261 274 287 289 294 289 259 248 262 273 279 282 276 270 268 272 274 282 285 286 286 288 285 274 266 258 248 241 230 223 218 212 207 204 199 198 195 192 196 203 205 198 195 195 195 192 194 194 197 193 189 184 181 184 192
271 263 258 264 267 262 257 257 262 271 282 285 286 285 280 273 269 270 264 258 258 260 260 262 264 266 267 270 273 274 272 267 256 244 239 246 257 273 284 283 275 268 273 277 279 276 270 274 278 281 284 284 285 285 273 269 263 256 249 244 234 223 217 215 212 208 207 203 200 196 199 198 192 199 197 193 193 195 196 194 195 194 194 191 187 186 185
263 269 266 258 259 263 268 271 273 274 275 275 272 272 274 273 268 262 263 258 252 256 260 260 260 261 261 261 264 275 281 283 276 251 242 248 250 257 263 271 278 283 284 279 275 273 273 272 267 267 271 276 281 279 272 265 262 257 255 247 238 220 215 216 213 212 210 208 205 204 205 202 198 202 198 197 194 191 190 192 194 191 193 194 193 190 186
261 260 261 259 259 263 271 278 280 274 266 260 260 263 268 272 272 270 267 265 263 260 258 257 258 260 261 262 258 251 250 261 278 278 263 262 254 253 256 256 260 269 278 282 281 280 281 280 279 279 279 281 283 275 268 260 256 253 250 242 237 232 219 212 215 210 210 208 206 205 204 206 205 205 199 196 194 193 186 184 187 186 187 191 191 189 186
247 248 255 261 267 271 269 268 267 265 263 262 263 264 264 267 273 274 272 268 266 263 261 261 259 260 259 256 256 258 252 239 235 260 270 270 275 268 262 264 270 274 278 276 275 273 272 274 270 267 268 271 270 266 259 255 252 246 243 240 240 233 220 219 216 214 209 210 208 210 209 209 209 211 202 195 194 194 189 190 188 191 190 190 190 188 190
262 267 269 264 262 262 260 260 259 257 261 265 263 264 266 269 274 271 268 269 266 266 266 263 261 262 261 262 258 256 256 257 258 258 261 258 261 266 268 265 260 265 266 268 272 272 271 271 272 270 266 260 256 251 248 253 248 245 237 238 231 230 221 219 216 212 211 210 211 212 212 214 212 206 200 194 194 191 190 192 193 199 195 191 190 188 189
258 253 254 254 254 255 254 250 256 263 266 264 263 266 269 265 258 262 266 269 271 271 270 268 265 263 265 263 261 260 258 258 258 260 263 263 259 260 261 262 263 262 264 263 262 266 270 267 265 264 264 262 262 258 257 252 251 244 239 233 229 227 226 216 214 212 209 209 208 209 212 214 210 206 205 194 193 195 195 196 198 192 188 189 189 186 190
255 256 258 260 259 259 260 264 266 262 259 261 262 265 263 261 263 267 268 265 261 261 263 270 274 270 260 262 263 262 258 256 258 258 260 261 263 261 260 263 264 265 267 267 267 264 265 266 264 264 264 257 250 249 251 250 248 245 239 233 232 228 222 214 209 205 209 211 209 205 210 212 211 210 201 195 197 198 198 197 198 196 196 197 197 195 192